Vertical_Velocity
1 1 2 3 3 3 3 2 2 2 2 3 3 2 1 -1 -1 -1 -1 -1 -0 0 0 1 1 1 1 2 2 2 2 2 2 1 1 0 -0 -0 -0 0 1 1 1 0 1 1 1 1 1 -0 -1 -1 -0 -0 -0 1 -2 -4 -4 -4 -3 -2 -2 -1 -1 -1 -1 -1 -2
1 2 3 3 3 3 2 2 2 2 2 3 3 3 1 -0 -1 -1 -1 -1 -1 0 1 1 1 1 2 2 2 2 2 2 2 3 3 2 1 0 -0 -0 0 1 1 1 1 1 1 1 0 -1 -2 -1 -1 0 0 -0 -3 -4 -4 -3 -2 -2 -1 -1 -1 -1 -1 -1 -2
2 3 3 3 3 2 2 2 2 2 3 3 3 3 2 0 -1 -2 -2 -2 -1 1 2 2 2 2 2 2 2 2 3 3 3 3 4 3 3 2 1 1 1 1 2 2 2 2 2 1 0 -1 -1 -0 0 1 0 -2 -3 -3 -3 -3 -1 -1 -1 -1 -1 -1 -1 -2 -2
2 3 3 2 2 3 3 3 3 3 3 3 3 3 2 1 -0 -1 -2 -2 -1 1 2 2 2 2 2 2 2 3 3 3 3 4 4 4 4 3 3 2 3 3 4 4 4 3 2 1 0 -0 0 1 1 0 -2 -4 -2 -2 -2 -1 -0 -0 -0 -1 -1 -1 -1 -2 -2
2 3 3 3 3 3 3 3 3 3 3 3 2 2 2 1 0 -1 -2 -2 -0 0 1 2 2 2 2 2 2 2 2 2 3 3 3 3 3 3 3 3 3 4 4 4 4 3 2 1 0 -0 -0 0 0 -3 -5 -2 -0 0 0 0 -0 0 0 0 0 -0 -1 -1 -2
2 3 3 3 3 3 3 2 3 3 3 2 2 2 2 1 0 -1 -1 -1 -1 -0 1 1 1 1 1 1 1 1 1 1 1 1 2 2 2 2 2 2 2 3 2 2 2 1 0 -0 -1 -1 -2 -2 -2 -2 -2 0 1 0 -1 -2 -1 -1 -1 0 1 -0 -1 -2 -2
3 3 2 2 2 2 2 2 3 3 3 2 2 2 2 1 0 -1 -2 -2 -1 0 1 1 1 1 1 1 1 1 1 1 1 1 1 2 2 2 2 2 2 1 1 1 1 0 -0 -1 -1 -1 -1 -1 -1 -1 -1 -1 -1 -1 -2 -1 -2 -2 -2 -0 1 -0 -2 -2 -1
2 2 1 2 2 2 2 2 3 3 2 2 3 3 2 1 -1 -2 -2 -1 -0 1 1 2 2 2 1 1 1 1 1 1 1 2 2 2 2 2 2 1 1 1 1 1 0 -0 -1 -1 -1 -1 -0 0 -0 -1 -1 -1 -1 -1 -1 1 -0 -1 -1 -0 0 0 0 0 -0
1 1 1 1 2 2 2 3 3 2 2 2 2 2 1 -0 -2 -2 -2 -0 0 1 2 2 2 1 1 1 1 1 2 2 2 2 2 2 2 2 1 1 1 0 0 0 -0 -1 -1 -1 -0 -0 0 -0 -1 -1 -1 -1 -1 -2 -1 0 1 1 1 1 1 1 0 -0 -1
1 1 1 1 2 2 2 3 3 2 2 2 2 1 -0 -1 -2 -2 -1 0 1 1 1 1 1 1 1 1 1 2 2 2 2 2 2 2 1 1 1 1 1 0 -0 -1 -1 -1 -1 -1 -0 -0 -1 -1 -1 -1 -2 -2 -2 -1 -1 0 1 1 2 2 1 -0 -1 -1 -1
2 1 1 2 2 2 3 3 3 2 2 2 1 -0 -1 -2 -2 -1 -0 1 1 1 0 0 0 0 1 1 2 2 3 3 2 2 2 1 1 0 0 0 0 -0 -1 -1 -1 -1 -1 -1 -1 -1 -1 -1 -1 -2 -2 -2 -1 -1 0 1 2 2 1 -0 -1 -1 -1 -1 -0
2 2 2 2 2 2 2 2 2 2 2 2 0 -1 -2 -2 -1 0 1 1 1 0 -1 -1 -0 0 1 2 3 3 3 2 2 2 1 0 0 0 -0 -0 -1 -1 -1 -1 -1 -1 -1 -1 -1 -0 -1 -1 -1 -1 -1 -1 -0 0 1 1 1 -0 -1 -1 -1 -0 -0 0 0
2 2 2 2 2 2 2 2 2 2 2 1 -0 -1 -1 -1 0 1 1 1 0 -1 -1 -1 0 1 2 3 3 3 2 2 2 1 1 0 -0 -0 -1 -1 -1 -1 -1 -1 -1 -0 -0 -0 0 0 -0 -1 -1 -1 -0 0 0 0 0 -0 -1 -1 -1 -0 0 0 0 0 0
2 2 2 2 2 2 2 2 2 2 1 0 -1 -1 -0 0 1 1 1 1 -0 -1 -1 0 1 2 2 2 2 2 2 2 2 1 0 -0 -0 -0 -1 -1 -1 -1 -0 -0 -0 0 0 1 1 0 -0 -0 -0 0 1 1 0 -0 -1 -1 -1 -1 -1 -0 0 0 0 1 0
2 2 2 3 2 2 2 2 2 2 1 -1 -1 -0 1 1 1 1 1 1 0 0 1 1 2 2 2 2 1 1 2 2 1 1 0 -0 -0 -1 -1 -1 -1 -0 0 0 0 0 1 1 1 1 0 1 1 1 1 0 -1 -1 -1 -1 -1 -1 -0 0 0 1 1 1 0
2 2 3 3 2 2 2 2 1 1 -0 -0 0 1 1 1 1 2 2 2 2 2 2 2 2 2 1 1 1 1 2 2 1 0 0 -0 -1 -1 -1 -1 -0 0 1 1 1 0 0 1 1 1 1 2 1 1 0 -1 -1 -2 -1 -1 -0 0 1 1 1 1 1 0 -1
2 3 3 3 2 2 2 1 1 0 -0 0 1 1 1 1 3 3 4 4 3 2 1 1 1 1 1 1 1 1 1 1 0 0 -0 -0 -1 -1 -1 -1 0 1 2 2 1 1 1 1 1 1 2 1 1 0 -1 -1 -1 -1 -0 0 1 1 1 1 1 0 -0 -1 -2
3 3 3 2 2 1 1 1 1 1 0 0 1 1 2 4 5 5 5 4 3 2 1 0 1 1 1 1 0 0 1 1 0 -0 -0 -1 -1 -1 -0 0 1 2 2 2 2 1 1 1 1 1 1 1 0 -0 -1 -1 -0 0 1 1 1 1 0 0 -0 -1 -1 -2 -2
3 3 2 2 1 1 1 1 1 1 1 1 1 3 4 5 5 5 4 3 2 1 0 1 1 0 0 0 -0 0 0 0 0 -0 -0 -1 -0 -0 0 1 2 2 2 2 2 1 1 1 1 1 0 0 -0 -0 -1 -1 -0 0 1 0 0 -0 -0 -1 -1 -1 -1 -2 -2
3 3 2 1 0 0 0 1 1 1 1 2 3 4 5 5 4 3 2 1 1 0 0 0 1 0 0 -0 -0 -0 -0 -0 -0 -0 -0 0 0 1 1 1 1 1 1 1 1 1 0 0 -0 -0 -0 -0 -1 -1 -1 -0 -0 0 0 -0 -0 -0 -0 -1 -1 -1 -1 -1 -1
3 2 1 -1 -1 -1 0 2 2 3 3 3 4 4 4 3 2 1 1 0 0 0 0 1 1 1 0 -1 -1 -1 -1 -1 -1 -0 -0 0 1 1 1 1 0 0 0 0 0 -0 -0 -1 -0 -0 -1 -1 -1 -1 -1 -0 -0 -0 -0 -0 0 -0 -0 -1 -1 -1 -1 -1 -1
2 0 -1 -3 -2 -0 2 3 4 4 4 3 3 3 2 1 1 0 0 0 0 1 1 2 1 1 0 -0 -1 -1 -1 -1 -1 -0 -0 0 0 0 -0 -0 -0 -0 -0 -0 -1 -1 -1 -1 -1 -1 -1 -1 -1 -0 -0 -0 0 0 0 0 -0 -1 -1 -2 -1 -1 -1 -0 -0
-0 -2 -3 -2 0 3 4 5 4 4 3 3 2 1 1 0 0 0 1 1 1 2 2 2 1 0 0 0 -0 -0 -0 -0 -0 -0 0 0 -0 -0 -0 -0 -0 -0 -0 -1 -1 -1 -1 -1 -1 -1 -1 -0 -0 0 0 0 0 0 0 -1 -1 -2 -2 -2 -1 -1 -1 -0 -0
-2 -2 -1 1 4 5 5 4 3 3 2 1 1 0 0 1 1 1 1 1 2 2 2 1 -0 -0 -0 0 0 0 0 0 0 0 0 0 0 0 0 -0 -0 -0 -1 -1 -1 -1 -1 -1 -1 -1 -0 0 0 1 1 1 0 -0 -1 -1 -2 -2 -2 -2 -1 -1 -1 -1 -1
-1 1 2 5 6 6 5 4 2 2 1 1 1 1 1 2 2 2 2 3 2 2 1 0 -0 -0 -0 -0 0 1 1 1 0 0 0 0 0 1 0 0 -0 -0 -1 -1 -1 -1 -1 -1 -1 -0 0 1 1 1 1 0 -0 -1 -1 -2 -2 -2 -1 -1 -1 -1 -1 -1 -1
3 4 5 6 6 5 4 3 2 1 1 1 2 2 2 2 2 3 3 2 1 1 0 0 -0 -1 -1 -0 0 1 1 1 0 0 0 1 1 1 1 0 0 -0 -1 -1 -1 -1 -1 -0 -0 0 1 1 1 0 0 -0 -1 -1 -1 -1 -1 -1 -1 -1 -1 -1 -1 -1 -1
4 6 7 7 6 4 3 2 1 2 2 2 2 2 2 2 2 2 1 0 0 0 0 0 -0 -1 -0 1 1 1 1 1 1 1 2 2 2 1 1 0 -0 -0 -0 -1 -0 -0 -0 0 0 1 1 1 0 -0 -0 -1 -1 -1 -1 -1 -1 -1 -1 -1 -1 -1 -2 -2 -2
5 6 6 6 5 3 2 1 2 2 2 3 3 2 1 2 2 1 -0 -0 0 0 0 -1 -1 0 1 1 1 1 1 1 2 2 2 2 1 1 0 -0 -0 -0 -0 -0 -0 0 0 0 0 0 0 0 0 -0 -0 -0 -1 -1 -1 -1 -1 -1 -1 -1 -1 -2 -2 -2 -2
5 6 6 5 3 2 1 1 2 2 3 3 3 2 2 2 0 -0 0 1 1 1 0 -1 -0 1 1 2 2 2 2 2 2 2 1 1 1 0 -0 -0 -0 0 0 0 0 0 -0 0 0 0 0 0 0 0 -0 -0 -0 -1 -1 -1 -1 -1 -1 -2 -2 -2 -2 -2 -1
6 6 5 3 2 1 1 2 2 3 3 3 3 3 2 -0 -1 0 1 2 1 1 0 -1 0 1 2 2 2 2 2 1 1 1 1 0 -0 -0 -1 -1 -0 0 0 0 -0 -0 -0 -0 -0 -0 -0 0 0 0 0 0 -0 -0 -0 -1 -1 -1 -1 -1 -1 -1 -1 -1 -1
5 4 2 2 2 2 2 3 2 2 2 2 2 1 -0 -1 0 1 2 2 1 1 1 1 1 2 2 2 2 1 1 1 1 1 0 -0 -1 -1 -1 -0 0 0 0 0 -0 -1 -1 -1 -1 -0 -0 0 0 0 0 0 0 0 0 -0 -0 -0 -1 -1 -0 -0 0 0 0
5 3 2 2 2 3 3 2 2 1 1 1 -1 -2 -1 0 1 2 2 1 1 1 1 2 2 2 2 2 1 1 1 1 1 0 -0 -1 -1 -1 -1 -0 0 0 -0 -0 -1 -1 -1 -1 -0 -0 0 0 0 0 1 1 1 1 0 0 0 -0 -0 0 0 1 1 1 1
5 4 4 4 3 2 2 1 1 1 0 -1 -2 -1 -0 1 2 2 1 1 1 2 2 2 2 2 2 1 1 1 1 0 0 -0 -1 -1 -1 -0 -0 0 0 -0 -0 -1 -1 -1 -0 -0 0 0 0 0 0 1 1 1 1 1 0 0 0 0 0 0 1 1 1 1 0
3 3 3 2 1 -0 -1 -1 0 1 -0 -1 -0 0 1 2 2 2 1 1 1 2 2 2 2 2 1 1 1 1 0 0 -0 -1 -1 -1 -0 0 0 0 -0 -0 -1 -1 -0 -0 0 0 0 0 0 0 1 1 1 1 0 0 -0 -0 -0 0 0 1 1 1 1 0 0
-2 -3 -3 -3 -4 -3 -3 -1 -0 0 -0 -0 1 2 2 2 1 1 1 1 1 2 2 2 1 1 1 1 0 -0 -0 -1 -1 -1 -0 0 0 0 0 -0 -0 -1 -1 -0 -0 -0 0 0 0 0 0 0 1 0 0 -0 -0 -1 -1 -1 -0 -0 0 0 0 0 -0 -0 -0
-7 -7 -6 -5 -5 -3 -2 -1 -1 -1 -1 -0 1 2 2 2 1 1 1 1 1 1 1 1 1 1 1 1 0 -0 -1 -1 -1 -0 0 0 0 0 -0 -0 -1 -0 -0 -0 -0 -0 -0 -0 -0 -0 0 0 0 -0 -1 -1 -1 -1 -1 -1 -0 -0 -0 -0 -0 -1 -1 -1 -1
-7 -6 -4 -3 -2 -1 -1 -1 -1 -1 -0 0 1 2 2 2 1 1 1 1 1 1 1 1 1 1 1 0 -0 -0 -0 -0 -0 0 0 1 0 0 -0 -0 -0 -0 -0 -0 -0 -0 -0 -0 -0 -0 -0 -0 -1 -1 -1 -1 -1 -1 -1 -1 -0 -0 -0 -0 -1 -1 -1 -1 -1
-4 -3 -2 -1 -0 -0 -1 -0 0 0 1 1 2 2 3 2 2 1 1 0 0 0 0 1 1 0 0 -0 -0 -0 -0 0 0 1 1 0 0 -0 -0 -0 -0 -0 -0 -0 -0 -0 -0 -0 -0 -0 -1 -1 -1 -1 -1 -1 -1 -1 -0 -0 -0 -0 -1 -1 -1 -1 -1 -1 -1
-1 -1 -1 0 0 -0 -0 -0 1 1 1 2 2 2 2 2 1 1 0 0 -0 -0 -0 0 0 0 0 -0 -0 0 0 1 1 1 1 0 0 -0 -0 -0 0 0 0 -0 -0 -0 -0 -0 -0 -1 -1 -1 -1 -1 -1 -1 -1 -0 -0 0 -0 -1 -1 -1 -1 -1 -1 -1 -1
1 1 1 1 2 1 1 1 1 2 2 2 2 2 2 1 1 0 0 -0 -0 -1 -1 -0 0 0 0 0 0 1 1 1 1 1 0 0 0 0 0 0 0 0 0 0 -0 -0 -0 -0 -0 -1 -1 -1 -1 -1 -1 -1 -0 -0 -0 -0 -1 -1 -1 -1 -1 -1 -1 -1 -1
3 2 2 2 2 3 3 3 3 2 2 2 2 2 1 1 1 0 0 0 -0 -0 -1 -0 -0 0 0 1 1 1 1 1 1 1 0 0 0 1 1 1 1 0 0 0 -0 -0 -0 -0 -0 -1 -1 -1 -1 -1 -0 -0 -0 -0 -1 -1 -1 -1 -1 -2 -2 -2 -1 -1 -1
Height
3084 3085 3086 3087 3088 3088 3089 3089 3090 3091 3091 3092 3093 3093 3094 3095 3095 3096 3096 3097 3097 3097 3097 3098 3098 3098 3099 3099 3100 3101 3102 3102 3103 3103 3103 3103 3103 3104 3104 3104 3104 3104 3104 3104 3104 3104 3104 3104 3104 3104 3104 3104 3104 3104 3104 3104 3104 3104 3104 3104 3104 3104 3103 3103 3102 3102 3101 3101 3100
3083 3084 3085 3086 3086 3087 3088 3088 3089 3090 3090 3091 3092 3093 3093 3094 3094 3095 3096 3096 3097 3097 3097 3097 3097 3098 3098 3098 3099 3100 3100 3101 3101 3102 3102 3102 3102 3103 3103 3103 3103 3103 3103 3103 3103 3103 3103 3103 3103 3103 3103 3103 3103 3103 3103 3103 3102 3103 3103 3103 3103 3103 3102 3102 3101 3101 3100 3100 3099
3082 3083 3083 3084 3085 3086 3086 3087 3088 3089 3090 3091 3091 3092 3092 3093 3093 3094 3095 3096 3096 3096 3096 3097 3097 3097 3098 3098 3098 3098 3099 3099 3100 3100 3100 3101 3101 3102 3102 3102 3102 3102 3102 3102 3102 3102 3102 3102 3102 3102 3102 3102 3102 3102 3102 3101 3102 3103 3103 3102 3102 3102 3101 3100 3100 3100 3099 3099 3098
3080 3081 3082 3083 3084 3084 3085 3086 3087 3088 3089 3090 3090 3091 3091 3092 3093 3093 3094 3095 3095 3095 3096 3096 3097 3097 3097 3097 3098 3098 3098 3098 3098 3098 3099 3099 3100 3100 3101 3101 3101 3101 3101 3101 3101 3101 3101 3101 3100 3100 3101 3101 3101 3101 3100 3101 3102 3102 3102 3101 3101 3100 3100 3099 3099 3099 3098 3098 3098
3079 3080 3081 3082 3083 3083 3084 3085 3086 3087 3088 3089 3089 3090 3090 3091 3092 3092 3093 3094 3094 3094 3095 3095 3096 3096 3096 3097 3097 3097 3097 3097 3097 3098 3098 3098 3099 3099 3100 3100 3100 3100 3100 3100 3100 3100 3099 3099 3099 3099 3099 3099 3099 3099 3100 3101 3102 3101 3100 3100 3099 3099 3099 3099 3098 3098 3097 3098 3097
3078 3079 3080 3081 3082 3083 3083 3084 3085 3086 3087 3088 3088 3089 3089 3090 3091 3091 3092 3092 3093 3093 3093 3094 3095 3095 3095 3095 3096 3096 3096 3096 3096 3096 3097 3097 3098 3098 3098 3098 3098 3098 3098 3098 3098 3098 3098 3098 3098 3098 3098 3098 3098 3098 3099 3100 3100 3099 3098 3099 3099 3099 3098 3097 3097 3097 3096 3096 3096
3076 3078 3078 3079 3080 3081 3082 3083 3084 3085 3086 3087 3087 3088 3088 3089 3090 3090 3091 3091 3091 3092 3093 3093 3093 3094 3094 3094 3094 3095 3095 3095 3095 3095 3096 3096 3097 3097 3097 3097 3097 3097 3097 3097 3097 3097 3096 3096 3097 3097 3097 3098 3098 3098 3098 3098 3098 3097 3098 3098 3099 3098 3097 3096 3096 3096 3095 3095 3094
3075 3076 3077 3078 3079 3080 3081 3082 3083 3084 3085 3085 3086 3087 3087 3088 3088 3089 3089 3090 3090 3091 3091 3092 3092 3093 3093 3093 3093 3093 3093 3094 3094 3094 3095 3095 3095 3095 3095 3095 3095 3096 3096 3096 3096 3095 3095 3096 3096 3096 3097 3097 3097 3096 3096 3096 3096 3096 3097 3098 3098 3097 3096 3095 3095 3094 3094 3093 3093
3073 3075 3076 3077 3078 3079 3080 3081 3082 3083 3083 3084 3085 3086 3086 3087 3087 3088 3088 3088 3089 3089 3090 3090 3091 3091 3091 3092 3092 3092 3092 3093 3093 3093 3093 3093 3094 3094 3094 3094 3094 3094 3094 3094 3094 3094 3095 3095 3095 3095 3095 3095 3095 3095 3095 3095 3095 3095 3096 3096 3096 3095 3095 3094 3094 3093 3093 3092 3092
3072 3073 3074 3075 3077 3078 3079 3080 3080 3081 3082 3083 3083 3084 3085 3085 3086 3086 3087 3087 3088 3088 3089 3089 3090 3090 3090 3090 3091 3091 3091 3092 3092 3092 3092 3092 3092 3093 3093 3093 3093 3093 3093 3093 3093 3093 3094 3094 3094 3094 3093 3093 3093 3093 3094 3094 3094 3095 3095 3095 3094 3094 3093 3093 3092 3092 3091 3091 3090
3071 3072 3073 3074 3075 3076 3077 3078 3079 3080 3081 3081 3082 3083 3083 3084 3084 3085 3085 3086 3086 3087 3088 3088 3088 3089 3089 3089 3090 3090 3090 3090 3090 3090 3091 3091 3091 3091 3091 3092 3092 3092 3092 3092 3092 3092 3093 3093 3093 3093 3093 3093 3093 3093 3093 3093 3094 3094 3093 3093 3093 3093 3092 3092 3091 3091 3090 3090 3089
3069 3071 3072 3073 3074 3075 3076 3077 3078 3078 3079 3080 3080 3081 3082 3082 3083 3083 3084 3084 3085 3086 3086 3087 3087 3088 3088 3088 3089 3089 3089 3089 3089 3089 3089 3089 3090 3090 3090 3091 3091 3091 3091 3091 3091 3091 3091 3091 3091 3092 3092 3092 3092 3092 3093 3093 3093 3093 3093 3092 3092 3091 3091 3090 3090 3090 3089 3089 3088
3068 3069 3070 3071 3073 3073 3074 3075 3076 3077 3078 3078 3079 3079 3080 3081 3082 3082 3083 3083 3084 3084 3085 3086 3086 3087 3087 3088 3088 3088 3088 3088 3088 3088 3088 3088 3089 3089 3089 3089 3090 3090 3090 3090 3090 3090 3090 3090 3090 3090 3091 3091 3091 3092 3092 3092 3092 3092 3091 3091 3090 3090 3090 3089 3089 3089 3088 3088 3088
3066 3068 3069 3070 3071 3072 3073 3073 3074 3075 3076 3076 3077 3078 3079 3079 3080 3081 3081 3082 3083 3083 3084 3085 3085 3086 3086 3086 3086 3086 3086 3086 3087 3087 3087 3087 3088 3088 3088 3088 3088 3089 3089 3089 3089 3089 3089 3089 3089 3089 3090 3090 3090 3091 3091 3091 3091 3090 3090 3090 3089 3089 3089 3088 3088 3088 3088 3087 3087
3065 3066 3067 3068 3069 3070 3071 3072 3073 3073 3074 3075 3076 3076 3077 3078 3078 3079 3080 3081 3082 3083 3083 3084 3084 3085 3085 3085 3085 3085 3085 3085 3085 3086 3086 3086 3087 3087 3087 3087 3088 3088 3088 3088 3088 3088 3088 3088 3088 3089 3089 3090 3090 3090 3090 3090 3089 3089 3089 3089 3088 3088 3088 3088 3088 3087 3087 3086 3085
3063 3064 3066 3067 3068 3068 3069 3070 3071 3072 3073 3073 3074 3075 3076 3076 3077 3078 3079 3080 3081 3082 3082 3083 3083 3083 3084 3084 3084 3084 3084 3084 3084 3085 3085 3085 3086 3086 3086 3086 3086 3086 3087 3087 3087 3087 3087 3088 3088 3088 3089 3089 3089 3089 3088 3088 3088 3088 3088 3088 3088 3088 3088 3087 3087 3086 3086 3085 3084
3062 3063 3064 3065 3066 3067 3068 3069 3070 3070 3071 3072 3073 3073 3074 3075 3076 3077 3078 3079 3080 3081 3081 3082 3082 3082 3082 3083 3083 3083 3083 3083 3083 3084 3084 3084 3084 3085 3085 3085 3085 3085 3086 3086 3086 3087 3087 3087 3088 3088 3088 3088 3088 3088 3088 3088 3088 3088 3088 3088 3087 3087 3087 3086 3086 3085 3084 3083 3083
3060 3062 3063 3063 3064 3065 3066 3067 3068 3069 3069 3070 3071 3072 3073 3074 3075 3076 3078 3078 3079 3079 3080 3080 3081 3081 3081 3081 3081 3081 3082 3082 3083 3083 3083 3083 3083 3083 3084 3084 3084 3085 3085 3085 3086 3086 3087 3087 3087 3087 3087 3087 3087 3087 3087 3087 3087 3087 3087 3087 3087 3086 3086 3085 3084 3084 3083 3082 3081
3059 3060 3061 3062 3063 3064 3065 3066 3067 3068 3068 3069 3070 3071 3072 3073 3074 3075 3076 3077 3078 3078 3078 3079 3079 3079 3079 3080 3080 3080 3081 3081 3081 3082 3082 3082 3082 3083 3083 3083 3083 3084 3085 3085 3085 3086 3086 3086 3086 3086 3086 3086 3086 3086 3087 3087 3087 3087 3086 3086 3086 3085 3084 3084 3083 3083 3082 3081 3080
3058 3059 3059 3060 3061 3063 3063 3064 3065 3066 3067 3068 3068 3069 3071 3072 3073 3074 3075 3075 3076 3077 3077 3078 3078 3078 3078 3078 3079 3079 3080 3080 3080 3081 3081 3081 3082 3082 3082 3083 3083 3083 3084 3084 3084 3085 3085 3085 3085 3085 3085 3086 3086 3086 3086 3086 3086 3086 3085 3085 3084 3084 3083 3083 3082 3081 3081 3080 3079
3056 3057 3058 3059 3060 3061 3062 3063 3064 3065 3065 3066 3068 3068 3070 3071 3072 3073 3073 3074 3075 3075 3076 3076 3077 3077 3077 3077 3078 3078 3078 3079 3079 3079 3080 3080 3081 3081 3082 3082 3083 3083 3083 3083 3084 3084 3084 3084 3085 3085 3085 3085 3085 3085 3085 3085 3085 3085 3084 3084 3083 3083 3082 3082 3081 3080 3079 3079 3078
3055 3056 3057 3058 3059 3060 3061 3062 3063 3063 3064 3065 3066 3067 3068 3069 3070 3071 3072 3073 3073 3074 3074 3075 3075 3076 3076 3076 3077 3077 3078 3078 3078 3078 3079 3079 3080 3081 3081 3082 3082 3082 3083 3083 3083 3083 3083 3084 3084 3084 3084 3084 3085 3085 3084 3084 3084 3084 3083 3083 3083 3082 3081 3080 3080 3079 3078 3078 3077
3053 3054 3055 3057 3058 3059 3060 3061 3062 3063 3063 3064 3065 3066 3067 3068 3069 3070 3071 3072 3072 3073 3073 3073 3074 3074 3075 3075 3076 3076 3077 3077 3077 3078 3078 3079 3080 3080 3081 3081 3081 3082 3082 3082 3083 3083 3083 3083 3084 3084 3084 3084 3084 3084 3084 3083 3083 3083 3082 3082 3081 3081 3080 3079 3079 3078 3078 3077 3076
3052 3053 3054 3056 3057 3058 3059 3060 3060 3061 3062 3063 3064 3065 3066 3067 3068 3069 3070 3070 3071 3071 3072 3072 3073 3073 3074 3074 3075 3075 3076 3076 3077 3077 3078 3079 3079 3080 3080 3080 3081 3081 3081 3082 3082 3083 3083 3083 3083 3083 3083 3083 3083 3083 3083 3083 3082 3082 3081 3081 3080 3079 3079 3078 3078 3077 3076 3075 3074
3051 3053 3054 3055 3056 3057 3058 3058 3059 3060 3061 3062 3063 3064 3065 3066 3067 3068 3068 3069 3070 3070 3071 3071 3072 3073 3073 3074 3074 3075 3075 3075 3076 3077 3078 3078 3079 3079 3079 3080 3080 3081 3081 3081 3082 3082 3083 3083 3083 3083 3083 3083 3083 3083 3082 3082 3081 3081 3080 3079 3079 3078 3078 3077 3077 3076 3075 3074 3073
3051 3052 3053 3054 3055 3056 3057 3058 3058 3059 3060 3061 3062 3063 3064 3065 3066 3067 3067 3068 3068 3069 3070 3070 3071 3072 3073 3073 3073 3074 3074 3075 3076 3077 3077 3078 3078 3078 3079 3079 3080 3080 3081 3081 3082 3082 3082 3082 3082 3082 3082 3082 3082 3082 3081 3081 3080 3079 3079 3078 3078 3078 3077 3076 3076 3075 3074 3073 3072
3050 3051 3052 3053 3054 3055 3056 3057 3058 3058 3059 3060 3061 3062 3063 3064 3065 3065 3066 3067 3067 3068 3069 3069 3070 3071 3072 3073 3073 3073 3074 3075 3076 3076 3077 3077 3078 3078 3079 3079 3080 3080 3080 3081 3081 3082 3082 3082 3082 3082 3081 3081 3081 3080 3080 3079 3079 3078 3078 3078 3077 3077 3076 3075 3074 3074 3073 3072 3071
3049 3050 3051 3052 3053 3054 3055 3056 3057 3057 3058 3059 3060 3061 3062 3063 3064 3064 3065 3066 3066 3067 3068 3068 3069 3070 3071 3072 3072 3073 3073 3074 3075 3076 3076 3077 3077 3078 3078 3079 3080 3080 3080 3081 3081 3081 3081 3081 3081 3081 3080 3080 3080 3079 3079 3079 3078 3078 3077 3077 3076 3076 3075 3074 3073 3073 3072 3071 3069
3048 3049 3050 3051 3052 3053 3054 3055 3056 3057 3057 3058 3059 3060 3061 3062 3063 3063 3064 3065 3065 3066 3067 3068 3069 3070 3071 3071 3072 3072 3073 3074 3074 3075 3076 3077 3077 3078 3078 3079 3079 3080 3080 3080 3080 3080 3080 3080 3080 3080 3079 3079 3079 3078 3078 3078 3078 3077 3077 3076 3075 3075 3074 3073 3073 3072 3071 3070 3068
3047 3048 3049 3050 3051 3052 3053 3054 3055 3055 3056 3058 3058 3060 3060 3061 3062 3063 3063 3064 3065 3066 3067 3068 3068 3069 3070 3071 3071 3072 3073 3073 3074 3075 3076 3076 3077 3078 3078 3079 3079 3079 3079 3079 3079 3079 3079 3079 3079 3079 3078 3078 3078 3078 3078 3077 3077 3076 3076 3075 3075 3074 3073 3073 3072 3071 3070 3069 3068
3047 3048 3049 3050 3051 3051 3052 3053 3054 3055 3056 3057 3058 3058 3059 3060 3061 3062 3063 3063 3064 3065 3066 3067 3068 3069 3069 3070 3071 3071 3072 3073 3074 3075 3075 3076 3077 3077 3078 3078 3079 3079 3079 3079 3078 3078 3078 3078 3078 3078 3078 3078 3077 3077 3077 3077 3076 3076 3075 3075 3074 3073 3073 3072 3071 3070 3069 3068 3067
3046 3047 3048 3049 3049 3050 3051 3052 3053 3054 3055 3056 3057 3058 3059 3060 3061 3061 3062 3063 3064 3065 3066 3067 3068 3068 3069 3069 3070 3071 3072 3073 3073 3074 3075 3076 3077 3077 3078 3078 3078 3078 3078 3078 3078 3078 3078 3078 3077 3077 3077 3077 3077 3077 3076 3076 3076 3075 3075 3074 3073 3073 3072 3071 3070 3069 3068 3067 3066
3045 3046 3047 3048 3049 3050 3051 3052 3053 3054 3055 3056 3057 3058 3058 3059 3060 3061 3061 3062 3063 3064 3065 3066 3067 3068 3068 3069 3070 3071 3072 3073 3073 3074 3075 3076 3076 3077 3077 3077 3077 3077 3077 3077 3077 3077 3077 3077 3077 3077 3077 3076 3076 3076 3076 3075 3075 3074 3074 3073 3073 3072 3071 3070 3069 3068 3067 3066 3064
3044 3046 3047 3048 3049 3050 3051 3052 3053 3053 3054 3055 3056 3057 3058 3058 3059 3060 3061 3062 3063 3064 3065 3066 3066 3067 3068 3069 3070 3071 3072 3073 3073 3074 3075 3075 3076 3076 3076 3076 3076 3076 3076 3076 3076 3076 3076 3076 3076 3076 3076 3076 3075 3075 3075 3074 3074 3073 3073 3072 3071 3071 3070 3069 3068 3067 3065 3064 3063
3044 3046 3047 3048 3049 3050 3051 3052 3052 3053 3054 3055 3056 3057 3058 3058 3059 3059 3060 3062 3063 3063 3064 3065 3066 3067 3068 3069 3070 3071 3072 3073 3073 3074 3074 3075 3075 3075 3075 3075 3075 3075 3075 3075 3075 3075 3075 3075 3075 3075 3075 3075 3075 3074 3074 3073 3073 3073 3072 3071 3070 3069 3068 3068 3066 3065 3064 3063 3061
3044 3045 3047 3048 3048 3049 3050 3051 3052 3053 3054 3054 3055 3056 3057 3058 3058 3059 3060 3061 3062 3063 3064 3065 3066 3067 3068 3069 3070 3071 3072 3072 3073 3073 3074 3074 3074 3075 3075 3075 3075 3075 3075 3075 3075 3075 3075 3075 3075 3075 3074 3074 3074 3073 3073 3073 3072 3071 3071 3070 3069 3068 3067 3066 3065 3064 3063 3061 3059
3043 3045 3046 3047 3048 3048 3049 3050 3051 3052 3053 3054 3055 3055 3056 3057 3058 3059 3060 3061 3062 3063 3063 3065 3066 3067 3068 3069 3070 3071 3071 3072 3073 3073 3073 3074 3074 3074 3074 3074 3074 3074 3074 3074 3074 3074 3074 3074 3074 3074 3074 3073 3073 3073 3072 3072 3071 3070 3070 3069 3068 3067 3066 3065 3064 3063 3061 3060 3058
3043 3044 3045 3046 3047 3048 3049 3050 3051 3052 3053 3053 3054 3055 3056 3057 3058 3059 3060 3061 3062 3063 3063 3065 3066 3067 3068 3069 3069 3070 3071 3072 3072 3073 3073 3073 3073 3073 3073 3073 3073 3073 3073 3073 3073 3073 3073 3073 3073 3073 3073 3073 3072 3072 3071 3071 3070 3070 3069 3068 3067 3066 3065 3064 3063 3061 3060 3058 3057
3042 3043 3044 3046 3047 3048 3048 3049 3050 3051 3052 3053 3054 3055 3056 3056 3058 3058 3059 3060 3061 3062 3063 3065 3066 3067 3068 3068 3069 3070 3071 3071 3072 3072 3072 3072 3073 3073 3073 3073 3073 3073 3073 3073 3073 3073 3073 3073 3073 3073 3073 3072 3072 3071 3071 3070 3069 3069 3068 3067 3066 3065 3064 3063 3062 3060 3058 3057 3056
3041 3042 3043 3045 3046 3047 3048 3049 3050 3051 3052 3053 3053 3054 3055 3056 3057 3058 3059 3060 3061 3063 3063 3064 3066 3067 3068 3068 3069 3069 3070 3071 3071 3071 3072 3072 3072 3072 3072 3072 3073 3073 3073 3072 3072 3072 3072 3072 3072 3072 3072 3071 3071 3071 3070 3070 3069 3068 3067 3066 3065 3064 3063 3062 3060 3059 3057 3056 3054
3040 3041 3042 3043 3045 3046 3047 3048 3049 3050 3051 3052 3053 3054 3055 3056 3057 3058 3059 3060 3061 3063 3063 3064 3065 3066 3067 3068 3068 3069 3069 3070 3070 3071 3071 3071 3071 3072 3072 3072 3072 3072 3072 3072 3072 3072 3072 3072 3072 3072 3071 3071 3070 3070 3069 3069 3068 3067 3066 3065 3064 3063 3062 3061 3059 3058 3056 3055 3053